FW1524 Weather Reports


time (UTC)temp
C
wind
direction
speed
KPH
gust
KPH
rain 1hr
cm
rain 24hr
cm
rain mn
cm
humidity
%
barometer
mb
20260831064521 17 224 0.0 0.0 0.00 0.00 0.00 1 1017.9
20260831063016 17 224 0.0 0.0 0.00 0.00 0.00 1 1018.2
20260831061512 17 224 0.0 0.0 0.00 0.00 0.00 1 1018.3
20260831060008 17 224 0.0 0.0 0.00 0.00 0.00 1 1018.4
20260831054505 17 224 0.0 0.0 0.00 0.00 0.00 1 1018.7
20260831053001 18 224 0.0 0.0 0.00 0.00 0.00 1 1018.5
20260831051609 19 224 0.0 0.0 0.00 0.00 0.00 1 1018.5
20260831050054 18 224 0.0 0.0 0.00 0.00 0.00 1 1018.5
20260831044609 22 224 0.0 0.0 0.00 0.00 0.00 1 1018.5
20260831043048 20 224 0.0 0.0 0.00 0.00 0.00 1 1018.6
20260831041552 19 224 0.0 0.0 0.00 0.00 0.00 1 1018.6
20260831040039 20 224 0.0 0.0 0.00 0.00 0.00 1 1018.6
20260831034540 19 224 0.0 0.0 0.00 0.00 0.00 1 1018.6
20260831033038 18 224 0.0 0.0 0.00 0.00 0.00 1 1018.6
20260831031531 19 224 0.0 0.0 0.00 0.00 0.00 1 1018.7
20260831030027 19 224 0.0 0.0 0.00 0.00 0.00 1 1018.6
20260831024523 20 224 0.0 0.0 0.00 0.00 0.00 1 1018.7
20260831023023 19 224 0.0 0.0 0.00 0.00 0.00 1 1018.7
20260831021512 20 224 0.0 0.0 0.00 0.00 0.00 1 1018.8
20260831020007 20 224 0.0 0.0 0.00 0.00 0.00 1 1018.6
20260831014504 20 215 0.0 0.0 0.00 0.00 0.00 1 1018.6
20260831013101 20 220 0.0 0.0 0.00 0.00 0.00 1 1018.5
20260831011557 19 236 0.0 0.0 0.00 0.00 0.00 1 1018.5
20260831010052 19 159 0.0 0.0 0.00 0.00 0.00 1 1018.3
20260831004553 19 159 0.0 0.0 0.00 0.00 0.00 1 1018.2
20260831003051 20 159 0.0 0.0 0.00 0.00 0.00 1 1017.9
20260831001544 20 159 0.0 0.0 0.00 0.00 0.00 1 1017.7
20260831000039 20 159 0.0 0.0 0.00 0.00 0.00 1 1017.5
20260830234553 20 159 0.0 0.0 0.00 0.00 0.00 1 1017.3
20260830233034 20 159 0.0 0.0 0.00 0.00 0.00 1 1017.3
20260830231530 21 159 0.0 0.0 0.00 0.00 0.00 1 1017.3
20260830230025 20 159 0.0 0.0 0.00 0.00 0.00 1 1017.3
20260830224520 21 159 0.0 0.0 0.00 0.00 0.00 1 1017.3
20260830223017 21 159 0.0 0.0 0.00 0.00 0.00 1 1017.1
20260830221512 21 159 0.0 0.0 0.00 0.00 0.00 1 1017.2
20260830220017 22 159 0.0 0.0 0.00 0.00 0.00 1 1017.1
20260830214512 22 159 0.0 0.0 0.00 0.00 0.00 1 1017.1
20260830213010 22 159 0.0 0.0 0.00 0.00 0.00 1 1017.2
20260830211503 22 159 0.0 0.0 0.00 0.00 0.00 1 1017.3
20260830210100 22 158 0.0 0.0 0.00 0.00 0.00 1 1017.3
20260830204555 22 64 0.0 0.0 0.00 0.00 0.00 1 1017.2
20260830203053 22 63 0.0 0.0 0.00 0.00 0.00 1 1017.2
20260830201548 22 20 0.0 0.0 0.00 0.00 0.00 1 1017.0
20260830200041 23 19 0.0 3.2 0.00 0.00 0.00 16 1016.9
20260830194541 24 5 0.0 4.8 0.00 0.00 0.00 1 1017.0
20260830193048 25 167 0.0 0.0 0.00 0.00 0.00 1 1016.8
20260830191533 25 162 0.0 0.0 0.00 0.00 0.00 12 1016.6
20260830190030 26 167 0.0 0.0 0.00 0.00 0.00 29 1016.7
20260830184531 26 170 0.0 0.0 0.00 0.00 0.00 8 1016.6
20260830183023 26 184 0.0 0.0 0.00 0.00 0.00 15 1016.7
20260830181516 26 208 0.0 1.6 0.00 0.00 0.00 7 1017.0
20260830180017 30 196 0.0 0.0 0.00 0.00 0.00 1 1017.0
20260830174513 31 200 0.0 0.0 0.00 0.00 0.00 1 1017.1
20260830173005 26 201 0.0 0.0 0.00 0.00 0.00 37 1017.4
20260830171502 29 186 0.0 1.6 0.00 0.00 0.00 1 1017.3
20260830170057 26 166 0.0 0.0 0.00 0.00 0.00 1 1017.4
20260830164553 25 225 0.0 0.0 0.00 0.00 0.00 1 1017.6
20260830163048 26 225 0.0 3.2 0.00 0.00 0.00 1 1017.8
20260830161544 26 202 0.0 0.0 0.00 0.00 0.00 1 1018.2
20260830160039 26 51 0.0 0.0 0.00 0.00 0.00 1 1018.2
20260830154538 23 256 0.0 0.0 0.00 0.00 0.00 1 1018.4
20260830153033 24 251 0.0 0.0 0.00 0.00 0.00 1 1018.6
20260830151528 21 34 0.0 0.0 0.00 0.00 0.00 1 1018.7
20260830150026 21 117 0.0 0.0 0.00 0.00 0.00 1 1018.8
20260830144533 20 115 0.0 0.0 0.00 0.00 0.00 1 1018.9
20260830143029 20 115 0.0 0.0 0.00 0.00 0.00 1 1018.8
20260830141515 20 114 0.0 0.0 0.00 0.00 0.00 1 1018.6
20260830140010 18 186 0.0 0.0 0.00 0.00 0.00 1 1018.8
20260830134510 17 196 0.0 0.0 0.00 0.00 0.00 1 1018.9
20260830133004 17 199 0.0 0.0 0.00 0.00 0.00 1 1019.0
20260830131601 17 223 0.0 0.0 0.00 0.00 0.00 1 1019.2
20260830130056 16 223 0.0 0.0 0.00 0.00 0.00 1 1019.4
20260830124555 16 229 0.0 0.0 0.00 0.00 0.00 1 1019.4
20260830123053 16 232 0.0 0.0 0.00 0.00 0.00 1 1019.4
20260830121548 15 232 0.0 0.0 0.00 0.00 0.00 1 1019.5
20260830120044 15 232 0.0 0.0 0.00 0.00 0.00 1 1019.5
20260830114604 15 232 0.0 0.0 0.00 0.00 0.00 1 1019.7
20260830113040 15 232 0.0 0.0 0.00 0.00 0.00 1 1019.9
20260830111536 14 232 0.0 0.0 0.00 0.00 0.00 1 1020.0
20260830110036 14 232 0.0 0.0 0.00 0.00 0.00 1 1020.0
20260830104518 13 232 0.0 0.0 0.00 0.00 0.00 1 1019.9
20260830103014 13 232 0.0 0.0 0.00 0.00 0.00 1 1019.9
20260830101510 14 232 0.0 0.0 0.00 0.00 0.00 1 1019.9
20260830100023 14 232 0.0 0.0 0.00 0.00 0.00 1 1019.9
20260830094504 13 232 0.0 0.0 0.00 0.00 0.00 1 1020.1
20260830093105 14 232 0.0 0.0 0.00 0.00 0.00 1 1020.3
20260830091555 14 232 0.0 0.0 0.00 0.00 0.00 1 1020.3
20260830090053 14 232 0.0 0.0 0.00 0.00 0.00 1 1020.3
20260830084548 14 232 0.0 0.0 0.00 0.00 0.00 1 1020.3
20260830083044 14 232 0.0 0.0 0.00 0.00 0.00 1 1020.4
20260830081540 14 232 0.0 0.0 0.00 0.00 0.00 1 1020.5
20260830080036 15 232 0.0 0.0 0.00 0.00 0.00 1 1020.7
20260830074533 15 232 0.0 0.0 0.00 0.00 0.00 1 1020.6
20260830073032 15 232 0.0 0.0 0.00 0.00 0.00 1 1020.7
20260830071535 14 232 0.0 0.0 0.00 0.00 0.00 1 1020.7
20260830070022 15 232 0.0 0.0 0.00 0.00 0.00 1 1020.7